976  
ASUS44 KBMX 220910  
RWRAL  
 
ALABAMA REGIONAL WEATHER ROUNDUP  
NATIONAL WEATHER SERVICE BIRMINGHAM AL  
300 AM CST THU FEB 22 2024  
 
NOTE: "FAIR" INDICATES FEW OR NO CLOUDS BELOW 12,000 FEET  
WITH NO SIGNIFICANT WEATHER AND/OR S TO VISIBILITY
.  
 
THE REMARK "TC" DENOTES TEMPERATURE IN DEGREES CELSIUS.  
 
ALZ001>011-014-016>018-020-221000-  
NORTH ALABAMA  
 
CITY SKY/WX TMP DP RH WIND PRES REMARKS
 
MUSCLE SHOALS CLEAR 59 48 67 SW12 29.96F TC 15  
HUNTSVILLE CLEAR 53 44 71 S8 30.00F TC 12  
DECATUR CLEAR 55 45 68 S13 30.00F TC 13  
HALEYVILLE PTCLDY 54 46 74 S14 30.01F TC 12  
GADSDEN CLEAR 51 41 68 SW3 30.06F TC 11  

 
 
ALZ012-013-022-023-030>036-040>044-221000-  
WEST CENTRAL ALABAMA  
 
CITY SKY/WX TMP DP RH WIND PRES REMARKS
 
TUSCALOOSA PTCLDY 54 45 71 S7 30.05F TC 12  
DEMOPOLIS PTCLDY 52 47 83 S3 30.06F TC 11  

 
 
ALZ015-024>026-033>036-041>044-221000-  
CENTRAL ALABAMA  
 
CITY SKY/WX TMP DP RH WIND PRES REMARKS
 
BIRMINGHAM PTCLDY 55 41 59 S10 30.08S TC 13  
MONTGOMERY CLEAR 46 39 76 SE3 30.10F TC 8  
SHELBY CO ARPT CLEAR 53 39 59 S3 30.06F TC 12  
MAXWELL AFB CLEAR 45 38 77 SE6 30.08F TC 7  
GREENVILLE CLEAR 43 41 93 S3 30.08F TC 6  
SELMA MOCLDY 43 41 93 SE5 30.08F TC 6  
PRATTVILLE CLEAR 41 38 88 CALM 30.10F TC 5  
BESSEMER PTCLDY 51 41 68 S7 30.07F TC 11  
TALLADEGA MOCLDY 50 39 66 S6 30.06F TC 10  
PELL CITY CLOUDY 50 41 71 S5 30.07F TC 10  
SYLACAUGA CLOUDY 51 39 64 S3 30.08F TC 11  
JASPER CLEAR 55 48 76 CALM 30.02F TC 13  

 
 
ALZ019-021-028-029-037-038-045>048-221000-  
EAST CENTRAL ALABAMA  
 
CITY SKY/WX TMP DP RH WIND PRES REMARKS
 
ANNISTON CLEAR 44 36 73 CALM 30.07F TC 7  
ALEXANDER CITY CLEAR 42 39 88 CALM 30.09F TC 6  
AUBURN CLEAR 48 36 63 S3 30.13F TC 9  

 
 
ALZ051>064-221000-  
SOUTHWEST ALABAMA  
 
CITY SKY/WX TMP DP RH WIND PRES REMARKS
 
MOBILE PTCLDY 53 51 93 SE5 30.09F TC 12  
BROOKLEY FIELD PTCLDY 51 47 86 CALM 30.11F FOG TC 11  
EVERGREEN CLEAR 40 37 89 CALM 30.10F TC 4  

 
 
ALZ049-050-065>069-221000-  
SOUTHEAST ALABAMA  
 
CITY SKY/WX TMP DP RH WIND PRES REMARKS
 
DOTHAN PTCLDY 49 43 80 S5 30.15F TC 9  
OZARK PTCLDY 46 42 89 S5 30.10F TC 8  
TROY NOT AVBL  
EUFAULA CLEAR 39 36 89 CALM 30.13F TC 4  

 
 
 
CLICK HERE TO GO TO PREVIOUS BULLETINS.

The Nexlab AL Page Main Text Page